Regional Weather Roundup
Issued by NWS Albany, NY

Home | Current Version | Previous Version | Graphics & Text | Print | Product List | Glossary On
Versions: 1 2 3 4 5 6 7 8 9 10 11 12 13 14 15 16 17 18 19 20 21 22 23 24 25 26 27 28 29 30 31 32 33 34 35 36 37 38 39 40 41 42 43 44 45 46 47 48 49 50
001
ASUS41 KALY 250710
RWRALY

NEW YORK STATE HOURLY WEATHER ROUNDUP
NATIONAL WEATHER SERVICE ALBANY NY
200 AM EST SAT FEB 25 2017

NOTE: "FAIR" INDICATES FEW OR NO CLOUDS BELOW 12,000 FEET WITH NO
SIGNIFICANT WEATHER AND/OR NO OBSTRUCTIONS TO VISIBILITY.

NYZ032-033-038>043-046>054-057>066-NYZ062>081-082-084-250800-
EAST


CITY           SKY/WX    TMP DP  RH WIND       PRES   REMARKS
ALBANY         PTCLDY    60  53  77 S14G23    29.75S
GLENS FALLS    CLOUDY    34  31  88 CALM      29.75F FOG
POUGHKEEPSIE   CLOUDY    60  56  86 VRB6      29.79F
NEWBURGH       MOCLDY    61  57  88 S6        29.81F
MONTGOMERY     CLOUDY    56  53  90 CALM      29.78F
WHITE PLAINS   FOG       54  53  97 S6        29.83F VSB 1/4
ISLIP          FOG       50  50 100 S6        29.86F VSB 1/2
NEW YORK CITY  FOG       54  51  90 S5        29.83F VSB 1/4
CENTRAL PARK   MOCLDY    57  53  86 S3        29.85F
$$

NYZ005>009-017-018-044>046-055-056-250800-
CENTRAL


CITY           SKY/WX    TMP DP  RH WIND       PRES   REMARKS
FULTON         PTCLDY    63  51  65 S16G24    29.57F
SYRACUSE       PTCLDY    62  51  67 S18G30    29.57F
ROME           PTCLDY    61  51  70 E8        29.66F
ELMIRA         MOCLDY    62  50  64 VRB6      29.64F
BINGHAMTON     CLEAR     57  51  80 S13G25    29.69F
MONTICELLO     PTCLDY    57  55  94 S6        29.81S
$$

NYZ026>034-041>043-087-250800-
NORTH


CITY           SKY/WX    TMP DP  RH WIND       PRES   REMARKS
WATERTOWN      CLEAR     37  37 100 VRB5      29.56F FOG     WCI  33
FORT DRUM      NOT AVBL
OGDENSBURG     FOG       35  34  98 E7        29.63F VSB 1   WCI  29
MASSENA        CLOUDY    34  34 100 E16G22    29.68F FOG     WCI  24
SARANAC LAKE   CLOUDY    48  45  89 VRB6      29.66F
PLATTSBURGH    FOG       35  34  96 CALM      29.73F VSB 1/4
$$

NYZ001>004-010>016-019>021-085-250800-
WEST


CITY           SKY/WX    TMP DP  RH WIND       PRES   REMARKS
NIAGARA FALLS  MOCLDY    45  40  82 CALM      29.50F
BUFFALO        CLOUDY    53  45  74 CALM      29.50F
DUNKIRK        CLOUDY    53  46  77 CALM      29.51S
JAMESTOWN        N/A     61  46  59 S14G22    29.53F
WELLSVILLE     PTCLDY    60  48  64 S14G23    29.61F
ROCHESTER      CLOUDY    64  51  62 S17G26    29.51F
PENN YAN       CLOUDY    61  49  64 S7        29.60F
$$

             KEY
       WCI = WIND CHILL INDEX
       VSB = VISIBILITY
       HX  = HEAT INDEX
$$




USA.gov is the U.S. government's official web portal to all federal, state and local government web resources and services.